Wind_Speed
38 38 36 36 36 35 32 33 31 29 29 27 26 23 21 21 19 18 18 19 20 20 20 20 20 22 21 19 18 18 17 17 18 19 20 19 17 15 19 21 22 21 19
36 39 39 40 36 34 38 37 34 32 31 30 29 27 27 25 24 22 21 21 22 22 22 21 22 23 23 21 21 20 20 18 20 20 20 18 18 20 18 25 26 25 22
28 33 38 34 39 44 49 38 39 37 38 33 33 32 31 30 28 27 26 25 25 25 25 23 23 24 25 24 23 23 24 22 20 21 21 20 20 19 19 23 28 28 25
23 25 26 34 47 42 51 45 39 37 41 37 36 34 34 34 34 32 30 29 29 27 27 26 25 25 27 26 25 25 25 25 23 23 25 22 20 22 23 24 27 30 29
23 22 23 22 27 38 37 51 51 48 51 40 39 42 41 36 35 34 32 32 32 31 30 29 28 28 28 28 27 26 26 26 26 25 26 26 23 23 23 28 27 32 36
26 25 25 28 30 33 37 34 40 47 41 43 44 48 46 43 38 38 35 32 32 34 33 30 29 28 28 28 27 26 26 27 27 27 27 26 25 24 22 24 25 31 33
28 29 31 30 28 30 33 31 37 40 41 42 46 50 53 46 53 47 39 38 33 35 35 33 32 29 27 26 26 26 26 25 26 27 28 28 26 27 25 24 27 27 30
34 35 35 34 33 32 31 35 37 40 41 41 45 51 54 57 58 61 47 45 43 43 41 38 36 33 30 28 25 25 25 24 24 25 27 28 28 27 27 24 27 33 37
40 40 37 37 38 38 34 34 36 39 42 43 47 48 50 58 56 55 56 54 48 50 44 43 43 37 34 30 29 26 23 22 22 23 24 27 29 29 28 23 25 29 33
45 43 41 41 43 42 40 38 38 38 39 40 44 46 48 45 39 46 53 59 51 47 50 56 48 45 39 36 32 28 25 23 21 22 21 24 27 30 32 30 27 25 31
43 44 46 47 45 44 43 42 44 42 40 39 40 40 39 43 50 41 52 44 48 33 31 32 65 51 46 39 36 33 30 27 24 23 21 22 25 28 31 34 32 34 28
43 44 46 49 49 45 45 44 45 48 45 42 40 39 40 41 45 42 41 43 41 30 29 29 40 57 48 43 39 37 34 31 29 26 24 22 23 24 27 30 32 30 35
42 44 46 51 50 48 46 46 46 48 49 46 44 43 42 43 44 45 41 41 43 35 33 30 26 45 51 43 42 41 39 35 32 30 27 24 23 24 26 28 31 34 35
43 47 50 50 49 50 49 49 48 48 50 51 48 47 46 45 46 46 47 44 43 41 39 39 31 31 52 47 45 42 44 40 36 34 31 28 26 25 25 28 31 35 37
46 47 50 52 53 50 50 50 50 50 50 52 51 50 50 48 48 48 46 46 46 46 45 40 38 36 42 50 45 44 46 42 39 37 34 32 31 29 27 27 29 31 33
52 53 49 50 49 49 46 46 48 49 49 51 53 51 52 51 50 51 50 44 44 49 48 44 42 40 42 43 57 48 46 44 42 41 38 35 33 32 31 28 28 29 24
36 38 40 41 41 41 41 43 47 47 48 50 53 53 51 51 51 52 52 49 46 46 52 47 46 42 42 43 57 51 43 42 42 42 41 38 36 34 33 29 28 29 27
30 32 34 36 37 39 41 43 45 47 46 48 51 53 53 51 51 52 53 53 49 46 49 52 48 46 44 43 54 56 50 45 45 41 42 41 38 36 35 33 31 30 31
23 25 28 30 34 37 37 40 41 42 44 45 47 50 51 47 47 48 50 52 52 48 46 51 52 48 48 49 48 58 60 53 51 47 44 44 41 41 39 37 34 33 34
27 27 24 23 26 28 29 30 32 35 35 37 36 39 43 44 44 44 46 49 51 50 48 47 49 51 52 52 49 52 56 60 58 53 47 48 46 44 42 41 37 35 35
31 34 33 26 25 20 18 17 23 28 31 32 34 35 38 41 37 37 38 42 46 48 50 50 50 49 57 55 54 51 50 49 56 58 51 49 49 47 46 44 40 37 37
29 33 36 37 31 24 20 17 16 14 19 21 27 31 35 36 34 31 32 34 38 41 49 47 57 53 58 57 53 48 47 51 50 50 52 50 50 48 47 47 46 47 46
25 27 32 34 38 38 34 31 25 19 9 12 18 23 23 26 30 29 30 32 39 41 41 46 51 57 53 52 51 47 49 47 48 45 48 51 52 53 51 51 49 49 50
25 25 28 31 33 34 36 37 34 27 22 12 2 14 20 24 26 29 30 28 33 42 45 45 51 55 43 49 47 47 47 48 47 46 46 51 53 55 51 46 46 45 46
23 25 26 26 26 27 29 31 33 36 37 32 26 19 10 12 16 14 16 23 25 30 33 45 55 53 52 41 42 45 47 50 49 49 49 51 54 53 54 46 48 43 41
22 22 22 23 24 25 26 27 28 28 30 33 34 35 34 28 19 9 2 2 23 13 18 19 24 27 34 39 42 43 45 49 46 44 52 53 55 60 50 54 53 48 48
Wind_Direction
252 245 246 249 252 252 257 259 260 259 259 257 256 255 251 252 252 246 241 246 251 254 252 247 247 248 248 248 245 246 247 246 240 238 237 240 248 251 246 231 238 241 239
255 250 247 247 246 257 257 256 258 258 256 257 252 251 253 249 247 247 243 240 246 250 252 249 247 248 243 245 248 249 245 248 248 241 236 235 244 245 255 240 236 240 242
262 261 256 250 255 247 256 249 251 252 257 253 254 250 249 252 250 248 246 243 242 245 249 248 246 248 247 243 248 249 250 250 247 248 239 240 245 240 253 248 230 235 242
264 269 279 261 255 258 259 247 247 248 255 255 257 254 250 251 253 251 247 246 245 244 245 248 245 245 247 244 245 246 246 251 247 250 244 243 251 249 253 245 241 236 234
263 270 281 280 282 273 272 259 241 246 237 246 260 263 258 251 250 252 249 248 245 243 242 243 246 244 243 244 243 242 243 248 246 247 247 251 255 252 256 250 256 245 235
273 275 279 280 279 274 271 270 260 271 256 233 249 250 259 255 253 253 249 251 250 243 240 242 245 247 244 243 242 241 241 244 246 247 248 253 256 254 257 254 252 237 224
270 274 280 286 290 279 271 260 260 261 261 249 246 248 252 256 247 256 249 246 249 246 240 237 240 242 245 244 241 238 240 245 248 248 250 251 254 255 255 253 239 233 226
275 280 282 289 290 291 278 270 264 263 261 258 262 257 262 253 254 244 248 244 239 240 239 236 235 237 238 241 237 238 236 238 241 246 249 251 251 253 257 258 242 240 236
277 278 279 281 290 286 279 273 266 262 261 259 259 256 263 263 258 238 240 244 243 232 234 239 231 231 234 232 232 232 233 237 241 244 242 248 249 250 248 259 247 241 241
274 276 277 277 284 282 280 270 268 266 263 260 258 259 262 255 248 236 237 243 241 251 239 232 232 229 225 230 229 228 231 234 237 244 245 245 249 251 248 248 252 246 249
268 270 274 278 278 279 278 275 271 266 264 262 261 262 264 248 239 257 250 254 254 277 268 270 228 224 224 229 230 229 228 233 237 243 246 246 248 248 252 251 254 253 253
266 268 271 275 277 277 276 273 269 268 265 263 260 258 256 254 249 256 259 253 263 265 262 280 231 214 217 228 229 232 232 232 237 241 247 252 254 256 255 256 254 259 258
267 266 268 271 276 276 274 271 267 264 263 263 260 257 253 252 253 255 251 250 257 259 246 256 252 233 222 228 230 234 235 235 236 242 246 251 256 260 259 260 258 262 270
268 266 268 272 273 273 271 269 265 262 260 259 257 256 254 251 250 249 252 253 254 254 248 249 244 240 222 227 232 234 236 235 237 240 244 249 253 259 262 262 260 266 276
270 272 273 276 276 272 269 267 264 261 258 259 257 254 253 250 249 249 249 248 246 248 247 243 241 241 229 226 231 229 235 235 238 241 244 247 252 257 260 263 261 267 283
270 271 273 274 273 273 270 267 264 260 256 256 256 253 251 251 250 250 247 248 242 243 246 240 240 243 243 246 231 230 231 236 237 239 242 245 248 254 258 260 261 260 273
282 282 279 275 273 269 266 265 264 260 256 254 254 255 251 249 250 249 249 245 245 240 245 242 243 237 239 245 219 226 231 238 242 240 242 244 250 252 254 256 257 258 259
295 290 290 289 285 277 268 263 261 261 257 254 252 254 252 250 247 247 248 248 244 244 244 244 240 243 234 231 226 232 239 243 244 244 242 245 249 248 250 252 253 251 251
333 323 312 301 291 281 273 266 262 259 257 253 250 250 252 251 250 247 246 245 244 243 243 242 241 239 237 235 236 234 235 240 244 244 244 245 246 247 249 249 249 247 245
12 3 347 327 310 297 288 279 269 261 255 251 251 250 248 249 246 242 241 241 240 239 240 238 243 238 237 238 242 239 238 240 243 244 246 247 247 248 248 250 251 250 250
25 24 18 6 351 326 303 290 281 266 258 250 248 247 243 243 245 242 240 239 238 238 237 239 235 243 240 237 238 239 239 242 242 243 244 246 248 249 252 246 251 252 250
20 22 26 28 22 23 23 5 350 278 260 256 249 245 243 240 240 236 236 241 240 238 234 235 237 241 240 241 241 242 241 242 244 242 240 244 248 248 246 246 255 255 254
32 30 29 26 29 31 34 29 16 9 332 255 230 234 238 233 228 231 241 249 243 238 241 233 236 236 241 238 239 240 241 245 245 247 242 245 248 249 250 253 254 253 246
29 27 29 34 31 26 35 42 39 43 49 41 282 219 215 219 225 233 234 241 243 238 236 236 241 232 231 234 236 240 241 246 247 248 244 242 247 247 246 250 250 245 240
26 27 27 29 29 32 40 33 36 44 50 57 63 74 89 217 225 232 235 250 242 240 242 239 236 235 232 237 240 240 245 246 246 246 247 244 247 240 255 242 236 238 244
23 23 23 29 31 31 35 39 44 45 42 43 54 60 62 55 49 50 99 215 233 226 213 220 239 239 229 238 244 245 248 250 246 241 246 245 241 252 248 258 234 240 240
Height
3131 3131 3132 3134 3134 3135 3138 3138 3139 3142 3143 3145 3145 3145 3145 3145 3145 3146 3148 3148 3149 3149 3151 3152 3153 3153 3154 3155 3156 3156 3157 3159 3159 3159 3160 3162 3163 3164 3164 3165 3168 3170 3171
3124 3124 3125 3126 3127 3130 3131 3131 3133 3134 3136 3138 3138 3139 3140 3140 3140 3141 3142 3143 3144 3144 3145 3146 3147 3148 3149 3151 3152 3152 3153 3155 3155 3155 3156 3157 3158 3159 3160 3160 3163 3166 3167
3118 3119 3119 3117 3123 3123 3124 3123 3126 3127 3128 3130 3132 3133 3133 3134 3135 3136 3136 3137 3139 3139 3140 3141 3141 3142 3144 3145 3147 3147 3149 3150 3151 3151 3151 3153 3153 3155 3155 3156 3157 3160 3163
3110 3110 3111 3112 3115 3115 3115 3110 3116 3119 3120 3121 3124 3125 3126 3127 3128 3128 3129 3130 3132 3134 3134 3135 3137 3137 3138 3140 3141 3142 3144 3145 3146 3146 3147 3147 3148 3149 3150 3151 3152 3153 3157
3103 3103 3103 3106 3106 3105 3102 3104 3103 3102 3108 3111 3116 3117 3118 3119 3119 3120 3122 3123 3124 3126 3128 3128 3130 3131 3132 3133 3135 3136 3137 3139 3140 3141 3142 3143 3143 3144 3144 3144 3145 3146 3150
3096 3096 3097 3098 3098 3096 3095 3096 3096 3095 3085 3095 3103 3106 3108 3110 3113 3113 3115 3115 3118 3120 3120 3123 3124 3125 3126 3127 3128 3130 3131 3133 3134 3135 3136 3137 3138 3138 3138 3138 3139 3139 3143
3088 3089 3089 3089 3087 3086 3085 3087 3087 3087 3088 3091 3092 3094 3097 3100 3103 3106 3105 3107 3109 3112 3113 3115 3117 3117 3119 3121 3122 3124 3125 3127 3128 3128 3130 3131 3132 3133 3133 3132 3134 3134 3137
3079 3078 3078 3077 3077 3076 3076 3076 3078 3078 3079 3084 3082 3084 3084 3088 3090 3093 3096 3097 3100 3103 3107 3108 3110 3110 3111 3114 3115 3116 3119 3120 3121 3122 3123 3125 3126 3126 3127 3127 3127 3129 3131
3069 3068 3068 3068 3068 3067 3066 3066 3067 3068 3069 3072 3073 3073 3072 3070 3074 3074 3081 3085 3088 3090 3095 3100 3102 3103 3104 3105 3108 3109 3112 3113 3114 3115 3116 3117 3118 3119 3120 3121 3121 3121 3123
3060 3059 3058 3058 3057 3056 3056 3055 3056 3057 3058 3060 3062 3062 3062 3060 3062 3064 3069 3074 3076 3081 3085 3088 3091 3094 3095 3097 3101 3102 3105 3107 3107 3108 3109 3110 3111 3112 3113 3114 3114 3114 3115
3050 3049 3048 3047 3046 3045 3044 3044 3044 3044 3046 3048 3048 3049 3048 3051 3053 3055 3058 3064 3066 3068 3072 3072 3077 3082 3084 3087 3092 3095 3097 3099 3100 3102 3102 3102 3103 3104 3106 3106 3107 3107 3108
3040 3039 3037 3036 3035 3033 3033 3032 3031 3031 3032 3033 3036 3037 3038 3040 3042 3044 3047 3053 3053 3060 3060 3059 3053 3070 3075 3078 3082 3087 3090 3091 3092 3094 3095 3096 3096 3097 3098 3098 3099 3099 3099
3029 3028 3027 3025 3023 3021 3021 3020 3019 3018 3019 3019 3022 3024 3026 3028 3031 3034 3038 3041 3043 3049 3049 3050 3053 3058 3063 3067 3073 3078 3082 3084 3085 3087 3088 3089 3089 3089 3089 3089 3090 3090 3088
3016 3015 3015 3013 3012 3009 3007 3007 3007 3006 3006 3006 3009 3011 3013 3016 3020 3023 3025 3031 3033 3035 3039 3040 3046 3046 3051 3056 3064 3068 3071 3074 3076 3078 3079 3080 3082 3082 3082 3082 3082 3081 3078
3002 3002 3000 2998 2997 2995 2992 2991 2991 2991 2991 2993 2994 2997 2999 3004 3007 3010 3014 3018 3022 3022 3024 3032 3035 3040 3043 3048 3054 3058 3062 3064 3066 3068 3069 3072 3074 3074 3074 3074 3074 3073 3068
2989 2987 2985 2982 2980 2978 2976 2975 2975 2976 2976 2977 2978 2981 2985 2988 2992 2996 3001 3005 3009 3010 3013 3021 3025 3032 3034 3037 3043 3048 3049 3053 3054 3057 3059 3062 3064 3066 3066 3066 3066 3065 3064
2975 2971 2969 2967 2965 2964 2962 2961 2960 2960 2961 2962 2964 2966 2971 2974 2977 2982 2987 2993 2994 2999 3000 3008 3013 3019 3021 3023 3028 3034 3037 3041 3043 3046 3049 3052 3055 3056 3057 3057 3058 3058 3057
2965 2962 2956 2951 2948 2948 2948 2947 2945 2944 2945 2947 2949 2952 2956 2960 2964 2968 2973 2977 2984 2987 2989 2994 3002 3005 3011 3014 3020 3022 3025 3029 3032 3036 3040 3041 3044 3047 3048 3048 3050 3051 3053
2957 2953 2947 2942 2938 2935 2933 2933 2933 2932 2930 2931 2934 2937 2941 2946 2950 2955 2960 2964 2969 2975 2979 2982 2988 2995 2999 3001 3004 3008 3012 3016 3020 3024 3028 3030 3033 3036 3038 3040 3041 3043 3044
2956 2950 2943 2936 2931 2925 2921 2919 2917 2917 2917 2918 2923 2926 2928 2931 2935 2940 2945 2950 2955 2960 2966 2970 2974 2980 2984 2989 2993 2995 2998 3002 3008 3013 3016 3019 3022 3025 3028 3030 3033 3034 3036
2960 2953 2945 2936 2928 2921 2916 2912 2907 2905 2906 2908 2909 2912 2915 2918 2924 2928 2932 2936 2941 2947 2953 2957 2962 2964 2969 2974 2980 2984 2988 2992 2995 3000 3004 3006 3010 3014 3017 3019 3022 3025 3026
2963 2956 2949 2940 2932 2923 2914 2908 2903 2898 2898 2898 2899 2901 2904 2909 2913 2918 2921 2924 2929 2934 2939 2945 2949 2954 2956 2961 2968 2972 2977 2979 2982 2986 2991 2995 2998 3001 3005 3007 3010 3014 3016
2965 2960 2953 2945 2937 2928 2918 2911 2904 2897 2892 2892 2892 2895 2898 2901 2906 2910 2913 2915 2919 2922 2927 2933 2937 2942 2943 2949 2955 2960 2963 2967 2971 2975 2981 2983 2985 2988 2990 2993 2996 2999 3002
2968 2962 2955 2948 2942 2937 2928 2919 2912 2904 2895 2890 2888 2889 2892 2895 2898 2901 2904 2905 2907 2910 2915 2921 2924 2928 2923 2939 2945 2949 2953 2957 2959 2963 2967 2968 2972 2973 2973 2979 2981 2984 2988
2970 2964 2959 2953 2948 2942 2935 2929 2921 2913 2904 2897 2893 2891 2891 2892 2894 2896 2898 2899 2899 2903 2905 2909 2913 2915 2919 2927 2934 2940 2943 2945 2947 2951 2955 2957 2959 2959 2959 2964 2969 2972 2975
2971 2967 2963 2957 2951 2946 2940 2934 2928 2922 2916 2909 2903 2899 2895 2894 2895 2895 2895 2894 2895 2898 2897 2900 2905 2904 2911 2921 2924 2927 2931 2933 2936 2939 2940 2943 2945 2947 2947 2950 2952 2958 2961